Weather History for Charleston, SC

Change the Weather History Date:

Tuesday, June 25, 2013

  Actual Average Record
Temperature  
Mean Temperature 82 °F 80 °F  
Max Temperature 89 °F 90 °F 99 °F (1952)
Min Temperature 74 °F 71 °F 58 °F (1947)
Degree Days  
Heating Degree Days 0 0  
Month to date heating degree days 0 0  
Since 1 June heating degree days 0 0  
Since 1 July heating degree days 1846 1975  
Cooling Degree Days 17 16  
Month to date cooling degree days 378 341  
Year to date cooling degree days 725 703  
Since 1 June cooling degree days 378 341  
Growing Degree Days 31 (Base 50)    
Moisture  
Dew Point 73 °F    
Average Humidity 75    
Maximum Humidity 94    
Minimum Humidity 55    
Precipitation  
Precipitation 0.01 in 0.21 in 2.60 in (1956)
Month to date precipitation 10.15 4.58  
Year to date precipitation 33.59 20.89  
Sea Level Pressure  
Sea Level Pressure 30.13 in    
Wind  
Wind Speed 6 mph (SSW)    
Max Wind Speed 16 mph    
Max Gust Speed 20 mph    
Visibility 10 miles    
Events Rain , Thunderstorm    
T = Trace of Precipitation, MM = Missing Value Source: NWS Daily Summary

Daily Weather History Graph

Daily Weather History Graph

Search for Another Location

Airport:

Trip Planner

Search our weather history database for the weather conditions in past years. The results will help you decide how hot, cold, wet, or windy it might be!

Date:

Astronomy

Jun. 25, 2013 Rise Set
Actual Time 6:13 AM EDT 8:32 PM EDT
Civil Twilight 5:44 AM EDT 9:01 PM EDT
Nautical Twilight 5:09 AM EDT 9:36 PM EDT
Astronomical Twilight 4:31 AM EDT 10:14 PM EDT
Moon 10:27 PM EDT 8:43 AM EDT
Length of Visible Light 15h 16m
Length of Day
14h 18m
Waning Gibbous, 93% of the Moon is Illuminated
Jun 25
Waning Gibbous
Jun 30
Last Quarter
Jul 8
New
Jul 15
First Quarter
Jul 22
Full

Hourly Weather History & Observations

Time (EDT) Temp. Heat Index Dew Point Humidity Pressure Visibility Wind Dir Wind Speed Gust Speed Precip Events Conditions
12:56 AM 77.0 °F - 73.0 °F 88% 30.17 in 10.0 mi SW 4.6 mph - N/A   Mostly Cloudy
1:56 AM 75.9 °F - 73.0 °F 91% 30.16 in 10.0 mi SSW 3.5 mph - N/A   Mostly Cloudy
2:56 AM 77.0 °F - 73.0 °F 88% 30.14 in 10.0 mi Calm Calm - N/A   Mostly Cloudy
3:56 AM 75.0 °F - 72.0 °F 90% 30.14 in 10.0 mi Calm Calm - N/A   Mostly Cloudy
4:56 AM 73.9 °F - 72.0 °F 93% 30.14 in 10.0 mi SW 3.5 mph - N/A   Mostly Cloudy
5:56 AM 75.9 °F - 73.0 °F 91% 30.15 in 10.0 mi Calm Calm - N/A   Mostly Cloudy
6:56 AM 75.9 °F - 73.0 °F 91% 30.17 in 10.0 mi Calm Calm - N/A   Scattered Clouds
7:56 AM 79.0 °F - 73.9 °F 84% 30.17 in 10.0 mi SSW 3.5 mph - N/A   Scattered Clouds
8:56 AM 82.0 °F 87.9 °F 73.9 °F 76% 30.18 in 10.0 mi SW 8.1 mph - N/A   Scattered Clouds
9:56 AM 84.9 °F 91.4 °F 73.0 °F 67% 30.17 in 10.0 mi SW 6.9 mph - N/A   Mostly Cloudy
10:56 AM 86.0 °F 91.5 °F 71.1 °F 61% 30.17 in 10.0 mi SSW 6.9 mph - N/A   Scattered Clouds
11:56 AM 87.1 °F 93.6 °F 72.0 °F 61% 30.16 in 10.0 mi SW 5.8 mph - N/A   Scattered Clouds
12:50 PM 82.4 °F 87.2 °F 71.6 °F 70% 30.16 in 10.0 mi SSW 6.9 mph - 0.01 in Rain , Thunderstorm Light Thunderstorms and Rain
12:56 PM 82.9 °F 88.8 °F 73.0 °F 72% 30.15 in 10.0 mi SSW 6.9 mph - 0.01 in Thunderstorm Thunderstorm
1:14 PM 86.0 °F 93.4 °F 73.4 °F 66% 30.15 in 10.0 mi SSW 9.2 mph - N/A   Scattered Clouds
1:56 PM 87.1 °F 93.6 °F 72.0 °F 61% 30.13 in 10.0 mi South 6.9 mph - N/A   Scattered Clouds
2:56 PM 87.1 °F 91.3 °F 69.1 °F 55% 30.11 in 10.0 mi SSW 4.6 mph - N/A   Scattered Clouds
3:56 PM 87.1 °F 95.4 °F 73.9 °F 65% 30.09 in 10.0 mi SSW 8.1 mph - N/A Thunderstorm Thunderstorm
4:27 PM 87.8 °F 95.6 °F 73.4 °F 62% 30.08 in 10.0 mi SSW 9.2 mph - N/A   Scattered Clouds
4:56 PM 87.1 °F 93.6 °F 72.0 °F 61% 30.07 in 10.0 mi South 10.4 mph - N/A   Scattered Clouds
5:56 PM 84.0 °F 89.6 °F 72.0 °F 67% 30.08 in 10.0 mi SSW 10.4 mph - N/A   Mostly Cloudy
6:56 PM 82.9 °F 88.0 °F 72.0 °F 69% 30.08 in 10.0 mi SSW 11.5 mph - N/A   Mostly Cloudy
7:56 PM 82.0 °F 87.9 °F 73.9 °F 76% 30.08 in 10.0 mi SSW 11.5 mph - N/A   Mostly Cloudy
8:56 PM 80.1 °F 84.5 °F 73.9 °F 81% 30.10 in 10.0 mi SSW 8.1 mph - N/A   Mostly Cloudy
9:56 PM 78.1 °F - 73.0 °F 84% 30.09 in 10.0 mi SSW 6.9 mph - N/A   Mostly Cloudy
10:56 PM 77.0 °F - 72.0 °F 84% 30.09 in 10.0 mi SSW 5.8 mph - N/A   Mostly Cloudy
11:56 PM 78.1 °F - 72.0 °F 81% 30.09 in 10.0 mi SSW 5.8 mph - N/A   Mostly Cloudy